Preview of NWS' New Version of Forecast
This preview is not operational and should not be used for support decisions.

Regional Weather Roundup (RWR)

Issued by National Weather Service (NWS)

                            
200 
ASUS43 KLOT 200558
RWRIL 

ILLINOIS REGIONAL WEATHER ROUNDUP
NATIONAL WEATHER SERVICE CHICAGO/ROMEOVILLE IL
100 AM CDT WED JUN 20 2018

NOTE: "FAIR" INDICATES FEW OR NO CLOUDS BELOW 12,000 FEET WITH NO
SIGNIFICANT WEATHER AND/OR OBSTRUCTIONS TO VISIBILITY.

* THESE STATIONS ARE NOT UNDER NWS QUALITY CONTROL. THEY ALSO MAY NOT
  REPORT WEATHER SUCH AS PRECIPITATION OR FOG.

ILZ001-002-007-009-015-016-024-200700-
NORTHWEST ILLINOIS
  
CITY           SKY/WX    TMP DP  RH WIND       PRES   REMARKS
MOLINE         NOT AVBL                                               
STERLING*      CLOUDY    70  66  88 N3        29.92R                  
$$

ILZ003-004-008-010-011-017-018-200700-
NORTH CENTRAL ILLINOIS
  
CITY           SKY/WX    TMP DP  RH WIND       PRES   REMARKS
ROCKFORD       NOT AVBL                                               
$$

ILZ005-006-012>014-019>023-200700-
NORTHEAST ILLINOIS
  
CITY           SKY/WX    TMP DP  RH WIND       PRES   REMARKS
CHICAGO-OHARE  CLOUDY    66  61  84 N8        29.89S                  
6HR MIN TEMP:  64; 6HR MAX TEMP:  68;                                

CHICAGO-MIDWAY NOT AVBL                                               
AURORA         CLOUDY    68  67  96 NW7       29.91R FOG              
WAUKEGAN       NOT AVBL                                               
DUPAGE AIRPORT NOT AVBL                                               
WHEELING       NOT AVBL                                               
NORTHERLY ISL    N/A     65  60  84 W5          N/A                   
$$

LMZ740>746-200700-
SOUTHERN LAKE MICHIGAN
  
STATION/POSITION SKY/WX   TEMP    WIND        PRES    VSBY  WAVE
                          AIR SEA DIR/SP/G                  HT/PER
                          (F)     (DEG/KT/KT) (MB)    (MI)  (FT/S)
SOUTHERN BUOY              64 62   50/  6/  8 1012.2R         1/ 3
HARRISON CRIB              62     330/ 14/ 14   N/A
NORTHERLY ISL              65     260/  5/  8   N/A
CALUMET HARBOR             66      CALM  /  2 1011.9
BURNS HARBOR               65     280/ 10/ 12 1012.5S
MICHIGAN CITY              66     230/ 11/ 11   N/A
MICHIGAN CITY 6N           66 70  280/ 10/ 12   N/A           2/ 4
ST. JOSEPH                 72 71  120/  4/  6 1011.4R         1
$$

ILZ025>027-034>036-040-047-049-050-058-095>099-200700-
WEST-CENTRAL ILLINOIS
  
CITY           SKY/WX    TMP DP  RH WIND       PRES   REMARKS
$$

ILZ028>032-037-038-041>044-048-051>054-059>061-200700-
CENTRAL ILLINOIS
  
CITY           SKY/WX    TMP DP  RH WIND       PRES   REMARKS
PEORIA         NOT AVBL                                               
SPRINGFIELD    NOT AVBL                                               
TAYLORVILLE    NOT AVBL                                               
$$

ILZ033-039-045-046-055>057-062-063-200700-
EAST-CENTRAL ILLINOIS
  
CITY           SKY/WX    TMP DP  RH WIND       PRES   REMARKS
$$

ILZ079-100>102-200700-
SOUTHWEST ILLINOIS
  
CITY           SKY/WX    TMP DP  RH WIND       PRES   REMARKS
$$

ILZ064>066-069>071-074>076-080>082-084>086-088>090-092>094-200700-
SOUTH-CENTRAL ILLINOIS
  
CITY           SKY/WX    TMP DP  RH WIND       PRES   REMARKS
CARBONDALE     NOT AVBL                                               
$$

ILZ067-068-072-073-078-083-087-091-200700-
SOUTHEAST ILLINOIS
  
CITY           SKY/WX    TMP DP  RH WIND       PRES   REMARKS
$$

ABBREVIATIONS USED IN REMARKS
   TC - TEMPERATURE IN CELSIUS
  WCI - WIND CHILL INDEX
   HX - HEAT INDEX
  VSB - VISIBILITY
$$